Year,Month,Day,Hour,Minute,Value (Times are PST for temperature in C)
2018,07,26,00,00,18.30
2018,07,26,00,01,18.40
2018,07,26,00,02,18.60
2018,07,26,00,03,18.70
2018,07,26,00,04,18.80
2018,07,26,00,05,18.90
2018,07,26,00,06,19.00
2018,07,26,00,07,19.10
2018,07,26,00,08,19.20
2018,07,26,00,09,19.20
2018,07,26,00,10,19.30
2018,07,26,00,11,19.30
2018,07,26,00,12,19.30
2018,07,26,00,13,19.30
2018,07,26,00,14,19.30
2018,07,26,00,15,19.30
2018,07,26,00,16,19.30
2018,07,26,00,17,19.20
2018,07,26,00,18,19.10
2018,07,26,00,19,19.00
2018,07,26,00,20,18.90
2018,07,26,00,21,18.80
2018,07,26,00,22,18.70
2018,07,26,00,23,18.50
2018,07,26,00,24,18.40
2018,07,26,00,25,18.30
2018,07,26,00,26,18.20
2018,07,26,00,27,18.10
2018,07,26,00,28,18.00
2018,07,26,00,29,17.90
2018,07,26,00,30,17.90
2018,07,26,00,31,17.90
2018,07,26,00,32,17.80
2018,07,26,00,33,17.80
2018,07,26,00,34,17.90
2018,07,26,00,35,18.00
2018,07,26,00,36,18.10
2018,07,26,00,37,18.20
2018,07,26,00,38,18.30
2018,07,26,00,39,18.40
2018,07,26,00,40,18.50
2018,07,26,00,41,18.50
2018,07,26,00,42,18.60
2018,07,26,00,43,18.60
2018,07,26,00,44,18.70
2018,07,26,00,45,18.70
2018,07,26,00,46,18.70
2018,07,26,00,47,18.70
2018,07,26,00,48,18.70
2018,07,26,00,49,18.70
2018,07,26,00,50,18.70
2018,07,26,00,51,18.70
2018,07,26,00,52,18.70
2018,07,26,00,53,18.70
2018,07,26,00,54,18.70
2018,07,26,00,55,18.70
2018,07,26,00,56,18.70
2018,07,26,00,57,18.70
2018,07,26,00,58,18.70
2018,07,26,00,59,18.70
2018,07,26,01,00,18.70
2018,07,26,01,01,18.60
2018,07,26,01,02,18.60
2018,07,26,01,03,18.60
2018,07,26,01,04,18.60
2018,07,26,01,05,18.60
2018,07,26,01,06,18.60
2018,07,26,01,07,18.60
2018,07,26,01,08,18.60
2018,07,26,01,09,18.60
2018,07,26,01,10,18.60
2018,07,26,01,11,18.60
2018,07,26,01,12,18.60
2018,07,26,01,13,18.60
2018,07,26,01,14,18.60
2018,07,26,01,15,18.60
2018,07,26,01,16,18.60
2018,07,26,01,17,18.50
2018,07,26,01,18,18.50
2018,07,26,01,19,18.50
2018,07,26,01,20,18.50
2018,07,26,01,21,18.40
2018,07,26,01,22,18.40
2018,07,26,01,23,18.40
2018,07,26,01,24,18.40
2018,07,26,01,25,18.40
2018,07,26,01,26,18.40
2018,07,26,01,27,18.30
2018,07,26,01,28,18.30
2018,07,26,01,29,18.30
2018,07,26,01,30,18.30
2018,07,26,01,31,18.30
2018,07,26,01,32,18.30
2018,07,26,01,33,18.30
2018,07,26,01,34,18.30
2018,07,26,01,35,18.30
2018,07,26,01,36,18.20
2018,07,26,01,37,18.20
2018,07,26,01,38,18.20
2018,07,26,01,39,18.20
2018,07,26,01,40,18.20
2018,07,26,01,41,18.20
2018,07,26,01,42,18.20
2018,07,26,01,43,18.20
2018,07,26,01,44,18.20
2018,07,26,01,45,18.10
2018,07,26,01,46,18.10
2018,07,26,01,47,18.10
2018,07,26,01,48,18.10
2018,07,26,01,49,18.10
2018,07,26,01,50,18.10
2018,07,26,01,51,18.00
2018,07,26,01,52,18.00
2018,07,26,01,53,18.00
2018,07,26,01,54,18.00
2018,07,26,01,55,18.00
2018,07,26,01,56,18.10
2018,07,26,01,57,18.00
2018,07,26,01,58,18.00
2018,07,26,01,59,18.00
2018,07,26,02,00,18.00
2018,07,26,02,01,18.00
2018,07,26,02,02,17.90
2018,07,26,02,03,17.90
2018,07,26,02,04,17.90
2018,07,26,02,05,17.90
2018,07,26,02,06,17.90
2018,07,26,02,07,17.90
2018,07,26,02,08,17.90
2018,07,26,02,09,17.90
2018,07,26,02,10,17.80
2018,07,26,02,11,17.80
2018,07,26,02,12,17.80
2018,07,26,02,13,17.80
2018,07,26,02,14,17.80
2018,07,26,02,15,17.80
2018,07,26,02,16,17.70
2018,07,26,02,17,17.70
2018,07,26,02,18,17.70
2018,07,26,02,19,17.70
2018,07,26,02,20,17.70
2018,07,26,02,21,17.70
2018,07,26,02,22,17.70
2018,07,26,02,23,17.70
2018,07,26,02,24,17.60
2018,07,26,02,25,17.60
2018,07,26,02,26,17.60
2018,07,26,02,27,17.60
2018,07,26,02,28,17.60
2018,07,26,02,29,17.60
2018,07,26,02,30,17.50
2018,07,26,02,31,17.50
2018,07,26,02,32,17.50
2018,07,26,02,33,17.50
2018,07,26,02,34,17.50
2018,07,26,02,35,17.40
2018,07,26,02,36,17.40
2018,07,26,02,37,17.40
2018,07,26,02,38,17.40
2018,07,26,02,39,17.40
2018,07,26,02,40,17.40
2018,07,26,02,41,17.40
2018,07,26,02,42,17.30
2018,07,26,02,43,17.30
2018,07,26,02,44,17.30
2018,07,26,02,45,17.30
2018,07,26,02,46,17.30
2018,07,26,02,47,17.30
2018,07,26,02,48,17.20
2018,07,26,02,49,17.20
2018,07,26,02,50,17.20
2018,07,26,02,51,17.20
2018,07,26,02,52,17.20
2018,07,26,02,53,17.20
2018,07,26,02,54,17.20
2018,07,26,02,55,17.20
2018,07,26,02,56,17.20
2018,07,26,02,57,17.20
2018,07,26,02,58,17.10
2018,07,26,02,59,17.20
2018,07,26,03,00,17.10
2018,07,26,03,01,17.10
2018,07,26,03,02,17.10
2018,07,26,03,03,17.10
2018,07,26,03,04,17.10
2018,07,26,03,05,17.10
2018,07,26,03,06,17.10
2018,07,26,03,07,17.10
2018,07,26,03,08,17.10
2018,07,26,03,09,17.10
2018,07,26,03,10,17.10
2018,07,26,03,11,17.10
2018,07,26,03,12,17.10
2018,07,26,03,13,17.10
2018,07,26,03,14,17.00
2018,07,26,03,15,17.00
2018,07,26,03,16,17.00
2018,07,26,03,17,17.00
2018,07,26,03,18,16.90
2018,07,26,03,19,16.90
2018,07,26,03,20,16.90
2018,07,26,03,21,16.90
2018,07,26,03,22,16.90
2018,07,26,03,23,16.90
2018,07,26,03,24,16.90
2018,07,26,03,25,16.90
2018,07,26,03,26,16.90
2018,07,26,03,27,16.90
2018,07,26,03,28,16.90
2018,07,26,03,29,16.80
2018,07,26,03,30,16.80
2018,07,26,03,31,16.80
2018,07,26,03,32,16.80
2018,07,26,03,33,16.80
2018,07,26,03,34,16.80
2018,07,26,03,35,16.80
2018,07,26,03,36,16.80
2018,07,26,03,37,16.80
2018,07,26,03,38,16.70
2018,07,26,03,39,16.70
2018,07,26,03,40,16.70
2018,07,26,03,41,16.70
2018,07,26,03,42,16.70
2018,07,26,03,43,16.70
2018,07,26,03,44,16.70
2018,07,26,03,45,16.70
2018,07,26,03,46,16.70
2018,07,26,03,47,16.70
2018,07,26,03,48,16.70
2018,07,26,03,49,16.70
2018,07,26,03,50,16.70
2018,07,26,03,51,16.70
2018,07,26,03,52,16.70
2018,07,26,03,53,16.70
2018,07,26,03,54,16.70
2018,07,26,03,55,16.70
2018,07,26,03,56,16.60
2018,07,26,03,57,16.60
2018,07,26,03,58,16.60
2018,07,26,03,59,16.60
2018,07,26,04,00,16.60
2018,07,26,04,01,16.60
2018,07,26,04,02,16.60
2018,07,26,04,03,16.60
2018,07,26,04,04,16.60
2018,07,26,04,05,16.60
2018,07,26,04,06,16.60
2018,07,26,04,07,16.60
2018,07,26,04,08,16.50
2018,07,26,04,09,16.50
2018,07,26,04,10,16.50
2018,07,26,04,11,16.50
2018,07,26,04,12,16.50
2018,07,26,04,13,16.50
2018,07,26,04,14,16.50
2018,07,26,04,15,16.50
2018,07,26,04,16,16.40
2018,07,26,04,17,16.50
2018,07,26,04,18,16.50
2018,07,26,04,19,16.50
2018,07,26,04,20,16.50
2018,07,26,04,21,16.50
2018,07,26,04,22,16.50
2018,07,26,04,23,16.50
2018,07,26,04,24,16.50
2018,07,26,04,25,16.40
2018,07,26,04,26,16.40
2018,07,26,04,27,16.40
2018,07,26,04,28,16.40
2018,07,26,04,29,16.40
2018,07,26,04,30,16.40
2018,07,26,04,31,16.40
2018,07,26,04,32,16.40
2018,07,26,04,33,16.40
2018,07,26,04,34,16.50
2018,07,26,04,35,16.50
2018,07,26,04,36,16.50
2018,07,26,04,37,16.50
2018,07,26,04,38,16.50
2018,07,26,04,39,16.50
2018,07,26,04,40,16.50
2018,07,26,04,41,16.50
2018,07,26,04,42,16.50
2018,07,26,04,43,16.50
2018,07,26,04,44,16.50
2018,07,26,04,45,16.50
2018,07,26,04,46,16.50
2018,07,26,04,47,16.50
2018,07,26,04,48,16.40
2018,07,26,04,49,16.40
2018,07,26,04,50,16.40
2018,07,26,04,51,16.40
2018,07,26,04,52,16.40
2018,07,26,04,53,16.40
2018,07,26,04,54,16.40
2018,07,26,04,55,16.40
2018,07,26,04,56,16.40
2018,07,26,04,57,16.30
2018,07,26,04,58,16.30
2018,07,26,04,59,16.30
2018,07,26,05,00,16.30
2018,07,26,05,01,16.30
2018,07,26,05,02,16.30
2018,07,26,05,03,16.30
2018,07,26,05,04,16.30
2018,07,26,05,05,16.30
2018,07,26,05,06,16.30
2018,07,26,05,07,16.30
2018,07,26,05,08,16.30
2018,07,26,05,09,16.30
2018,07,26,05,10,16.30
2018,07,26,05,11,16.30
2018,07,26,05,12,16.30
2018,07,26,05,13,16.30
2018,07,26,05,14,16.30
2018,07,26,05,15,16.30
2018,07,26,05,16,16.30
2018,07,26,05,17,16.30
2018,07,26,05,18,16.30
2018,07,26,05,19,16.30
2018,07,26,05,20,16.30
2018,07,26,05,21,16.30
2018,07,26,05,22,16.30
2018,07,26,05,23,16.30
2018,07,26,05,24,16.30
2018,07,26,05,25,16.30
2018,07,26,05,26,16.30
2018,07,26,05,27,16.30
2018,07,26,05,28,16.30
2018,07,26,05,29,16.30
2018,07,26,05,30,16.30
2018,07,26,05,31,16.30
2018,07,26,05,32,16.30
2018,07,26,05,33,16.30
2018,07,26,05,34,16.30
2018,07,26,05,35,16.30
2018,07,26,05,36,16.30
2018,07,26,05,37,16.30
2018,07,26,05,38,16.30
2018,07,26,05,39,16.30
2018,07,26,05,40,16.30
2018,07,26,05,41,16.30
2018,07,26,05,42,16.30
2018,07,26,05,43,16.30
2018,07,26,05,44,16.30
2018,07,26,05,45,16.30
2018,07,26,05,46,16.30
2018,07,26,05,47,16.30
2018,07,26,05,48,16.30
2018,07,26,05,49,16.30
2018,07,26,05,50,16.30
2018,07,26,05,51,16.30
2018,07,26,05,52,16.30
2018,07,26,05,53,16.20
2018,07,26,05,54,16.20
2018,07,26,05,55,16.20
2018,07,26,05,56,16.20
2018,07,26,05,57,16.20
2018,07,26,05,58,16.20
2018,07,26,05,59,16.20
2018,07,26,06,00,16.20
2018,07,26,06,01,16.20
2018,07,26,06,02,16.20
2018,07,26,06,03,16.20
2018,07,26,06,04,16.20
2018,07,26,06,05,16.10
2018,07,26,06,06,16.10
2018,07,26,06,07,16.10
2018,07,26,06,08,16.10
2018,07,26,06,09,16.10
2018,07,26,06,10,16.10
2018,07,26,06,11,16.10
2018,07,26,06,12,16.10
2018,07,26,06,13,16.10
2018,07,26,06,14,16.10
2018,07,26,06,15,16.10
2018,07,26,06,16,16.10
2018,07,26,06,17,16.20
2018,07,26,06,18,16.20
2018,07,26,06,19,16.20
2018,07,26,06,20,16.20
2018,07,26,06,21,16.20
2018,07,26,06,22,16.30
2018,07,26,06,23,16.30
2018,07,26,06,24,16.30
2018,07,26,06,25,16.30
2018,07,26,06,26,16.30
2018,07,26,06,27,16.30
2018,07,26,06,28,16.40
2018,07,26,06,29,16.40
2018,07,26,06,30,16.40
2018,07,26,06,31,16.40
2018,07,26,06,32,16.40
2018,07,26,06,33,16.40
2018,07,26,06,34,16.50
2018,07,26,06,35,16.50
2018,07,26,06,36,16.50
2018,07,26,06,37,16.50
2018,07,26,06,38,16.50
2018,07,26,06,39,16.60
2018,07,26,06,40,16.60
2018,07,26,06,41,16.60
2018,07,26,06,42,16.60
2018,07,26,06,43,16.60
2018,07,26,06,44,16.60
2018,07,26,06,45,16.60
2018,07,26,06,46,16.70
2018,07,26,06,47,16.70
2018,07,26,06,48,16.70
2018,07,26,06,49,16.70
2018,07,26,06,50,16.70
2018,07,26,06,51,16.70
2018,07,26,06,52,16.80
2018,07,26,06,53,16.80
2018,07,26,06,54,16.80
2018,07,26,06,55,16.80
2018,07,26,06,56,16.80
2018,07,26,06,57,16.90
2018,07,26,06,58,16.90
2018,07,26,06,59,16.90
2018,07,26,07,00,16.90
2018,07,26,07,01,17.00
2018,07,26,07,02,17.00
2018,07,26,07,03,17.00
2018,07,26,07,04,17.10
2018,07,26,07,05,17.10
2018,07,26,07,06,17.10
2018,07,26,07,07,17.10
2018,07,26,07,08,17.10
2018,07,26,07,09,17.20
2018,07,26,07,10,17.20
2018,07,26,07,11,17.20
2018,07,26,07,12,17.20
2018,07,26,07,13,17.30
2018,07,26,07,14,17.30
2018,07,26,07,15,17.30
2018,07,26,07,16,17.40
2018,07,26,07,17,17.40
2018,07,26,07,18,17.40
2018,07,26,07,19,17.50
2018,07,26,07,20,17.50
2018,07,26,07,21,17.60
2018,07,26,07,22,17.60
2018,07,26,07,23,17.60
2018,07,26,07,24,17.70
2018,07,26,07,25,17.70
2018,07,26,07,26,17.70
2018,07,26,07,27,17.80
2018,07,26,07,28,17.80
2018,07,26,07,29,17.80
2018,07,26,07,30,17.80
2018,07,26,07,31,17.90
2018,07,26,07,32,17.90
2018,07,26,07,33,18.00
2018,07,26,07,34,18.00
2018,07,26,07,35,18.10
2018,07,26,07,36,18.10
2018,07,26,07,37,18.20
2018,07,26,07,38,18.20
2018,07,26,07,39,18.20
2018,07,26,07,40,18.20
2018,07,26,07,41,18.20
2018,07,26,07,42,18.20
2018,07,26,07,43,18.20
2018,07,26,07,44,18.10
2018,07,26,07,45,18.10
2018,07,26,07,46,18.00
2018,07,26,07,47,17.90
2018,07,26,07,48,17.80
2018,07,26,07,49,17.80
2018,07,26,07,50,17.70
2018,07,26,07,51,17.70
2018,07,26,07,52,17.60
2018,07,26,07,53,17.60
2018,07,26,07,54,17.50
2018,07,26,07,55,17.50
2018,07,26,07,56,17.40
2018,07,26,07,57,17.40
2018,07,26,07,58,17.40
2018,07,26,07,59,17.40
2018,07,26,08,00,17.40
2018,07,26,08,01,17.40
2018,07,26,08,02,17.40
2018,07,26,08,03,17.30
2018,07,26,08,04,17.30
2018,07,26,08,05,17.40
2018,07,26,08,06,17.30
2018,07,26,08,07,17.30
2018,07,26,08,08,17.30
2018,07,26,08,09,17.20
2018,07,26,08,10,17.20
2018,07,26,08,11,17.10
2018,07,26,08,12,17.10
2018,07,26,08,13,17.00
2018,07,26,08,14,17.00
2018,07,26,08,15,16.90
2018,07,26,08,16,16.90
2018,07,26,08,17,16.90
2018,07,26,08,18,16.90
2018,07,26,08,19,16.90
2018,07,26,08,20,16.90
2018,07,26,08,21,16.90
2018,07,26,08,22,17.00
2018,07,26,08,23,17.00
2018,07,26,08,24,17.00
2018,07,26,08,25,16.90
2018,07,26,08,26,16.90
2018,07,26,08,27,16.80
2018,07,26,08,28,16.80
2018,07,26,08,29,16.70
2018,07,26,08,30,16.70
2018,07,26,08,31,16.70
2018,07,26,08,32,16.70
2018,07,26,08,33,16.70
2018,07,26,08,34,16.60
2018,07,26,08,35,16.60
2018,07,26,08,36,16.70
2018,07,26,08,37,16.70
2018,07,26,08,38,16.70
2018,07,26,08,39,16.60
2018,07,26,08,40,16.60
2018,07,26,08,41,16.60
2018,07,26,08,42,16.60
2018,07,26,08,43,16.60
2018,07,26,08,44,16.60
2018,07,26,08,45,16.60
2018,07,26,08,46,16.60
2018,07,26,08,47,16.60
2018,07,26,08,48,16.70
2018,07,26,08,49,16.70
2018,07,26,08,50,16.70
2018,07,26,08,51,16.70
2018,07,26,08,52,16.70
2018,07,26,08,53,16.70
2018,07,26,08,54,16.80
2018,07,26,08,55,16.80
2018,07,26,08,56,16.80
2018,07,26,08,57,16.80
2018,07,26,08,58,16.80
2018,07,26,08,59,16.90
2018,07,26,09,00,16.90
2018,07,26,09,01,16.90
2018,07,26,09,02,17.00
2018,07,26,09,03,17.00
2018,07,26,09,04,17.10
2018,07,26,09,05,17.10
2018,07,26,09,06,17.20
2018,07,26,09,07,17.20
2018,07,26,09,08,17.30
2018,07,26,09,09,17.30
2018,07,26,09,10,17.30
2018,07,26,09,11,17.30
2018,07,26,09,12,17.40
2018,07,26,09,13,17.40
2018,07,26,09,14,17.40
2018,07,26,09,15,17.40
2018,07,26,09,16,17.50
2018,07,26,09,17,17.60
2018,07,26,09,18,17.60
2018,07,26,09,19,17.70
2018,07,26,09,20,17.70
2018,07,26,09,21,17.80
2018,07,26,09,22,17.80
2018,07,26,09,23,17.80
2018,07,26,09,24,17.80
2018,07,26,09,25,17.80
2018,07,26,09,26,17.80
2018,07,26,09,27,17.80
2018,07,26,09,28,17.70
2018,07,26,09,29,17.70
2018,07,26,09,30,17.70
2018,07,26,09,31,17.70
2018,07,26,09,32,17.70
2018,07,26,09,33,17.80
2018,07,26,09,34,17.90
2018,07,26,09,35,17.90
2018,07,26,09,36,17.90
2018,07,26,09,37,17.90
2018,07,26,09,38,17.90
2018,07,26,09,39,18.00
2018,07,26,09,40,18.00
2018,07,26,09,41,18.00
2018,07,26,09,42,18.10
2018,07,26,09,43,18.20
2018,07,26,09,44,18.20
2018,07,26,09,45,18.20
2018,07,26,09,46,18.20
2018,07,26,09,47,18.20
2018,07,26,09,48,18.20
2018,07,26,09,49,18.10
2018,07,26,09,50,18.20
2018,07,26,09,51,18.10
2018,07,26,09,52,18.10
2018,07,26,09,53,18.20
2018,07,26,09,54,18.20
2018,07,26,09,55,18.20
2018,07,26,09,56,18.20
2018,07,26,09,57,18.20
2018,07,26,09,58,18.20
2018,07,26,09,59,18.20
2018,07,26,10,00,18.20
2018,07,26,10,01,18.20
2018,07,26,10,02,18.20
2018,07,26,10,03,18.20
2018,07,26,10,04,18.30
2018,07,26,10,05,18.30
2018,07,26,10,06,18.30
2018,07,26,10,07,18.40
2018,07,26,10,08,18.40
2018,07,26,10,09,18.50
2018,07,26,10,10,18.50
2018,07,26,10,11,18.50
2018,07,26,10,12,18.60
2018,07,26,10,13,18.50
2018,07,26,10,14,18.50
2018,07,26,10,15,18.40
2018,07,26,10,16,18.40
2018,07,26,10,17,18.40
2018,07,26,10,18,18.40
2018,07,26,10,19,18.40
2018,07,26,10,20,18.40
2018,07,26,10,21,18.40
2018,07,26,10,22,18.50
2018,07,26,10,23,18.50
2018,07,26,10,24,18.50
2018,07,26,10,25,18.50
2018,07,26,10,26,18.50
2018,07,26,10,27,18.60
2018,07,26,10,28,18.60
2018,07,26,10,29,18.60
2018,07,26,10,30,18.60
2018,07,26,10,31,18.70
2018,07,26,10,32,18.80
2018,07,26,10,33,18.80
2018,07,26,10,34,18.90
2018,07,26,10,35,19.00
2018,07,26,10,36,19.10
2018,07,26,10,37,19.20
2018,07,26,10,38,19.30
2018,07,26,10,39,19.30
2018,07,26,10,40,19.30
2018,07,26,10,41,19.20
2018,07,26,10,42,19.20
2018,07,26,10,43,19.20
2018,07,26,10,44,19.20
2018,07,26,10,45,19.20
2018,07,26,10,46,19.30
2018,07,26,10,47,19.40
2018,07,26,10,48,19.50
2018,07,26,10,49,19.60
2018,07,26,10,50,19.60
2018,07,26,10,51,19.70
2018,07,26,10,52,19.70
2018,07,26,10,53,19.70
2018,07,26,10,54,19.60
2018,07,26,10,55,19.60
2018,07,26,10,56,19.60
2018,07,26,10,57,19.60
2018,07,26,10,58,19.60
2018,07,26,10,59,19.70
2018,07,26,11,00,19.70
2018,07,26,11,01,19.70
2018,07,26,11,02,19.70
2018,07,26,11,03,19.70
2018,07,26,11,04,19.70
2018,07,26,11,05,19.80
2018,07,26,11,06,19.80
2018,07,26,11,07,19.90
2018,07,26,11,08,19.90
2018,07,26,11,09,19.80
2018,07,26,11,10,19.70
2018,07,26,11,11,19.60
2018,07,26,11,12,19.60
2018,07,26,11,13,19.60
2018,07,26,11,14,19.60
2018,07,26,11,15,19.60
2018,07,26,11,16,19.60
2018,07,26,11,17,19.60
2018,07,26,11,18,19.60
2018,07,26,11,19,19.60
2018,07,26,11,20,19.70
2018,07,26,11,21,19.70
2018,07,26,11,22,19.70
2018,07,26,11,23,19.70
2018,07,26,11,24,19.70
2018,07,26,11,25,19.70
2018,07,26,11,26,19.80
2018,07,26,11,27,19.80
2018,07,26,11,28,19.90
2018,07,26,11,29,19.90
2018,07,26,11,30,19.90
2018,07,26,11,31,20.00
2018,07,26,11,32,20.10
2018,07,26,11,33,20.30
2018,07,26,11,34,20.40
2018,07,26,11,35,20.40
2018,07,26,11,36,20.40
2018,07,26,11,37,20.40
2018,07,26,11,38,20.50
2018,07,26,11,39,20.50
2018,07,26,11,40,20.60
2018,07,26,11,41,20.70
2018,07,26,11,42,20.70
2018,07,26,11,43,20.70
2018,07,26,11,44,20.80
2018,07,26,11,45,20.80
2018,07,26,11,46,20.70
2018,07,26,11,47,20.70
2018,07,26,11,48,20.70
2018,07,26,11,49,20.80
2018,07,26,11,50,20.90
2018,07,26,11,51,20.90
2018,07,26,11,52,21.00
2018,07,26,11,53,21.10
2018,07,26,11,54,21.20
2018,07,26,11,55,21.30
2018,07,26,11,56,21.30
2018,07,26,11,57,21.40
2018,07,26,11,58,21.50
2018,07,26,11,59,21.60
2018,07,26,12,00,21.60
2018,07,26,12,01,21.60
2018,07,26,12,02,21.60
2018,07,26,12,03,21.60
2018,07,26,12,04,21.70
2018,07,26,12,05,21.70
2018,07,26,12,06,21.80
2018,07,26,12,07,21.90
2018,07,26,12,08,21.90
2018,07,26,12,09,21.90
2018,07,26,12,10,21.90
2018,07,26,12,11,21.90
2018,07,26,12,12,22.00
2018,07,26,12,13,22.10
2018,07,26,12,14,22.20
2018,07,26,12,15,22.30
2018,07,26,12,16,22.40
2018,07,26,12,17,22.50
2018,07,26,12,18,22.60
2018,07,26,12,19,22.70
2018,07,26,12,20,22.70
2018,07,26,12,21,22.80
2018,07,26,12,22,22.70
2018,07,26,12,23,22.70
2018,07,26,12,24,22.70
2018,07,26,12,25,22.70
2018,07,26,12,26,22.80
2018,07,26,12,27,22.80
2018,07,26,12,28,22.90
2018,07,26,12,29,23.00
2018,07,26,12,30,23.10
2018,07,26,12,31,23.20
2018,07,26,12,32,23.20
2018,07,26,12,33,23.30
2018,07,26,12,34,23.40
2018,07,26,12,35,23.50
2018,07,26,12,36,23.60
2018,07,26,12,37,23.80
2018,07,26,12,38,23.90
2018,07,26,12,39,23.90
2018,07,26,12,40,23.80
2018,07,26,12,41,23.70
2018,07,26,12,42,23.70
2018,07,26,12,43,23.70
2018,07,26,12,44,23.70
2018,07,26,12,45,23.80
2018,07,26,12,46,23.80
2018,07,26,12,47,23.90
2018,07,26,12,48,23.90
2018,07,26,12,49,23.90
2018,07,26,12,50,24.00
2018,07,26,12,51,24.00
2018,07,26,12,52,24.00
2018,07,26,12,53,23.90
2018,07,26,12,54,23.90
2018,07,26,12,55,23.80
2018,07,26,12,56,23.80
2018,07,26,12,57,23.80
2018,07,26,12,58,23.80
2018,07,26,12,59,23.90
2018,07,26,13,00,24.00
2018,07,26,13,01,24.00
2018,07,26,13,02,24.10
2018,07,26,13,03,24.20
2018,07,26,13,04,24.30
2018,07,26,13,05,24.30
2018,07,26,13,06,24.30
2018,07,26,13,07,24.30
2018,07,26,13,08,24.40
2018,07,26,13,09,24.40
2018,07,26,13,10,24.40
2018,07,26,13,11,24.30
2018,07,26,13,12,24.20
2018,07,26,13,13,24.20
2018,07,26,13,14,24.10
2018,07,26,13,15,24.00
2018,07,26,13,16,24.00
2018,07,26,13,17,24.00
2018,07,26,13,18,24.10
2018,07,26,13,19,24.10
2018,07,26,13,20,24.20
2018,07,26,13,21,24.30
2018,07,26,13,22,24.40
2018,07,26,13,23,24.40
2018,07,26,13,24,24.50
2018,07,26,13,25,24.50
2018,07,26,13,26,24.50
2018,07,26,13,27,24.50
2018,07,26,13,28,24.50
2018,07,26,13,29,24.60
2018,07,26,13,30,24.70
2018,07,26,13,31,24.80
2018,07,26,13,32,24.90
2018,07,26,13,33,25.00
2018,07,26,13,34,25.00
2018,07,26,13,35,25.20
2018,07,26,13,36,25.20
2018,07,26,13,37,25.30
2018,07,26,13,38,25.40
2018,07,26,13,39,25.30
2018,07,26,13,40,25.20
2018,07,26,13,41,25.10
2018,07,26,13,42,25.00
2018,07,26,13,43,25.00
2018,07,26,13,44,25.00
2018,07,26,13,45,25.10
2018,07,26,13,46,25.20
2018,07,26,13,47,25.30
2018,07,26,13,48,25.30
2018,07,26,13,49,25.30
2018,07,26,13,50,25.40
2018,07,26,13,51,25.40
2018,07,26,13,52,25.40
2018,07,26,13,53,25.40
2018,07,26,13,54,25.50
2018,07,26,13,55,25.60
2018,07,26,13,56,25.70
2018,07,26,13,57,25.80
2018,07,26,13,58,25.80
2018,07,26,13,59,25.90
2018,07,26,14,00,26.00
2018,07,26,14,01,26.10
2018,07,26,14,02,26.10
2018,07,26,14,03,26.20
2018,07,26,14,04,26.20
2018,07,26,14,05,26.20
2018,07,26,14,06,26.10
2018,07,26,14,07,26.10
2018,07,26,14,08,26.10
2018,07,26,14,09,26.00
2018,07,26,14,10,25.90
2018,07,26,14,11,25.80
2018,07,26,14,12,25.70
2018,07,26,14,13,25.70
2018,07,26,14,14,25.60
2018,07,26,14,15,25.60
2018,07,26,14,16,25.60
2018,07,26,14,17,25.50
2018,07,26,14,18,25.50
2018,07,26,14,19,25.60
2018,07,26,14,20,25.60
2018,07,26,14,21,25.70
2018,07,26,14,22,25.80
2018,07,26,14,23,25.90
2018,07,26,14,24,26.00
2018,07,26,14,25,26.10
2018,07,26,14,26,26.10
2018,07,26,14,27,26.20
2018,07,26,14,28,26.30
2018,07,26,14,29,26.30
2018,07,26,14,30,26.20
2018,07,26,14,31,26.20
2018,07,26,14,32,26.10
2018,07,26,14,33,26.10
2018,07,26,14,34,26.10
2018,07,26,14,35,26.20
2018,07,26,14,36,26.20
2018,07,26,14,37,26.30
2018,07,26,14,38,26.30
2018,07,26,14,39,26.40
2018,07,26,14,40,26.40
2018,07,26,14,41,26.40
2018,07,26,14,42,26.50
2018,07,26,14,43,26.60
2018,07,26,14,44,26.60
2018,07,26,14,45,26.70
2018,07,26,14,46,26.70
2018,07,26,14,47,26.80
2018,07,26,14,48,26.80
2018,07,26,14,49,26.80
2018,07,26,14,50,26.90
2018,07,26,14,51,27.00
2018,07,26,14,52,27.10
2018,07,26,14,53,27.20
2018,07,26,14,54,27.30
2018,07,26,14,55,27.30
2018,07,26,14,56,27.30
2018,07,26,14,57,27.40
2018,07,26,14,58,27.40
2018,07,26,14,59,27.50
2018,07,26,15,00,27.60
2018,07,26,15,01,27.70
2018,07,26,15,02,27.70
2018,07,26,15,03,27.80
2018,07,26,15,04,28.00
2018,07,26,15,05,28.10
2018,07,26,15,06,28.10
2018,07,26,15,07,28.20
2018,07,26,15,08,28.20
2018,07,26,15,09,28.20
2018,07,26,15,10,28.10
2018,07,26,15,11,28.20
2018,07,26,15,12,28.20
2018,07,26,15,13,28.20
2018,07,26,15,14,28.10
2018,07,26,15,15,28.10
2018,07,26,15,16,28.10
2018,07,26,15,17,28.10
2018,07,26,15,18,28.10
2018,07,26,15,19,28.10
2018,07,26,15,20,28.10
2018,07,26,15,21,28.20
2018,07,26,15,22,28.20
2018,07,26,15,23,28.20
2018,07,26,15,24,28.20
2018,07,26,15,25,28.20
2018,07,26,15,26,28.20
2018,07,26,15,27,28.20
2018,07,26,15,28,28.20
2018,07,26,15,29,28.20
2018,07,26,15,30,28.10
2018,07,26,15,31,28.10
2018,07,26,15,32,28.10
2018,07,26,15,33,28.10
2018,07,26,15,34,28.10
2018,07,26,15,35,28.10
2018,07,26,15,36,28.10
2018,07,26,15,37,28.10
2018,07,26,15,38,28.10
2018,07,26,15,39,28.20
2018,07,26,15,40,28.20
2018,07,26,15,41,28.20
2018,07,26,15,42,28.20
2018,07,26,15,43,28.20
2018,07,26,15,44,28.10
2018,07,26,15,45,28.10
2018,07,26,15,46,28.10
2018,07,26,15,47,28.10
2018,07,26,15,48,28.10
2018,07,26,15,49,28.10
2018,07,26,15,50,28.10
2018,07,26,15,51,28.10
2018,07,26,15,52,28.20
2018,07,26,15,53,28.20
2018,07,26,15,54,28.20
2018,07,26,15,55,28.20
2018,07,26,15,56,28.30
2018,07,26,15,57,28.30
2018,07,26,15,58,28.30
2018,07,26,15,59,28.30
2018,07,26,16,00,28.30
2018,07,26,16,01,28.30
2018,07,26,16,02,28.30
2018,07,26,16,03,28.30
2018,07,26,16,04,28.30
2018,07,26,16,05,28.30
2018,07,26,16,06,28.30
2018,07,26,16,07,28.30
2018,07,26,16,08,28.30
2018,07,26,16,09,28.40
2018,07,26,16,10,28.50
2018,07,26,16,11,28.50
2018,07,26,16,12,28.60
2018,07,26,16,13,28.60
2018,07,26,16,14,28.70
2018,07,26,16,15,28.80
2018,07,26,16,16,28.80
2018,07,26,16,17,28.90
2018,07,26,16,18,29.00
2018,07,26,16,19,29.10
2018,07,26,16,20,29.10
2018,07,26,16,21,29.10
2018,07,26,16,22,29.10
2018,07,26,16,23,29.20
2018,07,26,16,24,29.20
2018,07,26,16,25,29.20
2018,07,26,16,26,29.20
2018,07,26,16,27,29.20
2018,07,26,16,28,29.20
2018,07,26,16,29,29.20
2018,07,26,16,30,29.20
2018,07,26,16,31,29.50
2018,07,26,16,32,29.60
2018,07,26,16,33,29.70
2018,07,26,16,34,29.70
2018,07,26,16,35,29.70
2018,07,26,16,36,29.70
2018,07,26,16,37,29.70
2018,07,26,16,38,29.70
2018,07,26,16,39,29.70
2018,07,26,16,40,29.60
2018,07,26,16,41,29.60
2018,07,26,16,42,29.60
2018,07,26,16,43,29.60
2018,07,26,16,44,29.60
2018,07,26,16,45,29.60
2018,07,26,16,46,29.70
2018,07,26,16,47,29.70
2018,07,26,16,48,29.70
2018,07,26,16,49,29.70
2018,07,26,16,50,29.70
2018,07,26,16,51,29.70
2018,07,26,16,52,29.80
2018,07,26,16,53,29.80
2018,07,26,16,54,29.90
2018,07,26,16,55,29.90
2018,07,26,16,56,29.90
2018,07,26,16,57,30.00
2018,07,26,16,58,30.10
2018,07,26,16,59,30.20
2018,07,26,17,00,30.30
2018,07,26,17,01,30.30
2018,07,26,17,02,30.30
2018,07,26,17,03,30.40
2018,07,26,17,04,30.30
2018,07,26,17,05,30.30
2018,07,26,17,06,30.30
2018,07,26,17,07,30.30
2018,07,26,17,08,30.30
2018,07,26,17,09,30.30
2018,07,26,17,10,30.30
2018,07,26,17,11,30.40
2018,07,26,17,12,30.40
2018,07,26,17,13,30.40
2018,07,26,17,14,30.30
2018,07,26,17,15,30.20
2018,07,26,17,16,30.10
2018,07,26,17,17,30.00
2018,07,26,17,18,29.90
2018,07,26,17,19,29.80